一网星座-0300星 (ONEWEB-0300 )

导读

ONEWEB-0300是英国OneWeb星座项目的互联网通信卫星,于2021年8月21日随OneWeb第九次任务发射升空。卫星由空客防务及航天合作生产,单星质量147千克,搭载Ku波段天线,部署至近地轨道,最终将进入1200公里工作轨道。它是OneWeb全球宽带星座的组成部分,旨在为无可靠地面互联网覆盖区域提供低延迟高速网络服务,支撑全球海陆空全域互联网接入。

Basic Information
目录编号:
49089
目录名称:
ONEWEB-0300
国际标识:
2021-075Q
轨道中心:
EARTH
卫星名称:
一网星座-0300星
卫星全名:
一网星座-0300星 (ONEWEB-0300 )
卫星状态:
在轨 (已飞行1757 天)
发射日期:
2021-08-21 UTC
国别 :
英国 (GB)
星等 :
--
Orbit Information
数据来源 国际轨道数据 AOE轨道数据
星历时间 2026-06-12T13:24:11+0800
18小时前
查看轨道信息
2026-06-11T17:00:00+0800
1天前
查看轨道信息
半长轴 7591.86km 7591.862km
偏心率 0.0001897 0.0001874
轨道倾角 87.895° 87.896°
近地点辐角 78.002° 86.452°
升交点赤经 351.643° 351.814°
平近点角 282.132° 219.288°
近地点 1212.282km 1212.302km
远地点 1215.164km 1215.148km
周期 109.719分钟 109.719分钟
每日圈数 13.124433 13.124426
Detailed Information
平衡模式:
三轴稳定
覆盖范围:
全球
运营商:
一网卫星公司
运营商所在国:
英国
制造商(研发单位):
一网卫星公司
制造商所在国:
英国
使用方式:
暂无
Satellite Introduction
OneWeb卫星网络由648颗重约125公斤的微型卫星组成,运行在1200公里的轨道上。 每颗卫星都能够提供至少每秒8千兆位的吞吐量,以使用其高吞吐量的Ku频段有效载荷为家庭和移动平台提供互联网接入。该卫星仍在工作。
2D Orbit Map
3D Orbit Map
Orbit Altitude Analysis Chart
Orbit Inclination Analysis Chart
Orbit Comprehensive Analysis Chart
View Comprehensive Chart